Dati Storici

Data ora Umidita' aria (%) Temperatura aria (°C) Rad globale (W/m²) Gonioanemometro (°) Tacoanemometro (m/s) Pioggia (mm)
16-06-2020 07:30 97.8 % 18.635 298.745 -0.009 0 0
16-06-2020 07:20 97.8 % 18.499 278.232 0.45 0 0
16-06-2020 07:10 97.8 % 18.359 127.412 0.361 0 0
16-06-2020 07:00 97.8 % 18.236 201.337 -0.008 0 0
16-06-2020 06:50 97.8 % 18.039 290.889 0.615 0 0
16-06-2020 06:40 97.8 % 17.955 65.966 1.102 0 0
16-06-2020 06:30 97.8 % 17.862 171.948 0.576 0 0
16-06-2020 06:20 97.8 % 17.799 163.484 0.635 0 0
16-06-2020 06:10 97.8 % 17.846 269.106 -0.007 0 0
16-06-2020 06:00 97.8 % 17.834 197.65 0.679 0 0
16-06-2020 05:50 97.8 % 17.834 237.892 -0.01 0 0
16-06-2020 05:40 97.8 % 17.763 164.088 -0.01 0 0
16-06-2020 05:30 97.8 % 17.769 233.279 -0.01 0 0
16-06-2020 05:20 97.8 % 17.696 241.525 -0.007 0 0
16-06-2020 05:10 97.8 % 17.72 154.551 0.406 0 0
16-06-2020 05:00 97.8 % 17.706 183.461 -0.005 0 0
16-06-2020 04:50 97.8 % 17.723 193.946 -0.004 0 0
16-06-2020 04:40 97.7 % 17.755 246.291 -0.01 0 0
16-06-2020 04:30 97.7 % 17.81 221.379 -0.01 0 0
16-06-2020 04:20 97.7 % 17.823 221.111 0.583 0 0

I dati sono presentati in modo automatico a scopo informativo. In seguito a verifica i dati possono subire modifiche o essere invalidati e non riportati negli archivi definitivi.